[[{"header":{"parameterUnit":"m.s-1","parameterCategory":1,"la1":30.2991,"la2":30.254,"lo1":-89.0895,"lo2":-89.0444,"dy":0.0017,"dx":0.0017,"nx":28,"ny":28,"refTime":"2024-05-04T03:00:00:Z","depth":0,"parameterNumber":2,"parameterNumberName":"U-component_of_WINDS"},"data":[0,0,0,0,0,0,0,0,0,0,0,0,0,0,0,0,0,0,0,0,0,0,0,0,0,0,0,0,0,0,0,0,0,0,0,0,0,0,0,0,0,0,0,0,0,0,0,0,0,0,0,0,0,0,0,0,0,0,-0.7,-0.7,0,-0.6982,-0.6982,-0.6982,-0.6962,-0.6962,-0.6961,-0.6961,-0.6944,-0.6944,-0.6944,0,0,0,0,0,0,0,0,0,0,0,0,0,-0.7017,-0.7017,-0.7,-0.7,-0.6999,-0.6982,-0.6982,-0.6982,-0.6962,-0.6962,-0.6961,-0.6961,-0.6944,-0.6944,-0.6944,0,0,0,0,0,0,0,0,0,0,0,0,0,-0.7006,-0.7017,-0.7,-0.6987,-0.6986,-0.6982,-0.6982,-0.6982,-0.6962,-0.6961,-0.6961,-0.6961,-0.6944,-0.6944,-0.6944,-0.6952,0,0,-0.6943,-0.6943,0,0,0,0,0,0,0,0,-0.7006,-0.7005,-0.6989,-0.6988,-0.6987,-0.6974,-0.6982,-0.6972,-0.6962,-0.6971,-0.6961,-0.696,-0.6955,-0.6953,-0.6951,-0.6951,-0.695,-0.6943,-0.6943,-0.6943,-0.6943,0,0,0,0,0,0,0,-0.7007,-0.7006,-0.6993,-0.6989,-0.6987,-0.6983,-0.6981,-0.698,-0.6966,-0.697,-0.6969,-0.6967,-0.6954,-0.6952,-0.6951,-0.695,-0.6943,-0.6943,-0.6943,-0.6943,-0.6955,-0.6956,0,0,0,0,0,0,-0.701,-0.7006,-0.6993,-0.6992,-0.6995,-0.6983,-0.6981,-0.6978,-0.6966,-0.6963,-0.6967,-0.6966,-0.6952,-0.6951,-0.695,-0.6958,-0.6943,-0.6943,-0.6943,-0.6955,-0.6955,-0.6956,0,0,0,0,0,0,-0.701,-0.7009,-0.6994,-0.6999,-0.6997,-0.6983,-0.6981,-0.6978,-0.6976,-0.6963,-0.6961,-0.6968,-0.6952,-0.695,-0.6951,-0.6957,-0.6943,-0.6942,-0.6954,-0.6955,-0.6956,-0.6975,0,0,0,0,0,0,-0.7011,-0.7009,-0.7011,-0.6999,-0.6997,-0.6995,-0.6981,-0.6978,-0.6975,-0.6974,-0.6963,-0.6961,-0.6951,-0.6952,-0.6951,-0.6957,-0.6942,-0.6954,-0.6955,-0.6955,-0.6974,-0.6976,-0.6978,0,0,0,0,0,-0.7011,-0.7018,-0.7012,-0.701,-0.6999,-0.6996,-0.6994,-0.6983,-0.6976,-0.6979,-0.6971,-0.6961,-0.6957,-0.6952,-0.6951,-0.6957,-0.6953,-0.6954,-0.6955,-0.6973,-0.6976,-0.6978,0,0,0,0,0,0,-0.7031,-0.7016,-0.7009,-0.7011,-0.7005,-0.6992,-0.6995,-0.6987,-0.6982,-0.6981,-0.6967,-0.6965,-0.6968,-0.6962,-0.6957,-0.6964,-0.6954,-0.6955,-0.6967,-0.697,-0.6972,-0.6974,-0.6942,0,0,0,0,0,-0.7036,-0.7034,-0.7021,-0.7024,-0.7021,-0.7009,-0.7007,-0.6999,-0.6992,-0.6989,-0.6981,-0.6975,-0.6972,-0.6971,-0.6968,-0.6973,-0.6971,-0.6976,-0.6979,-0.6981,-0.6982,-0.6984,-0.6987,-0.6959,-0.6959,-0.6959,0,0,-0.7046,-0.7037,-0.7037,-0.7028,-0.7022,-0.7021,-0.7007,-0.7006,-0.7005,-0.6989,-0.6989,-0.6984,-0.6976,-0.6979,-0.698,-0.6975,-0.6989,-0.6982,-0.6984,-0.6984,-0.6986,-0.6988,-0.6991,-0.696,-0.696,-0.696,0,0,-0.7063,-0.7056,-0.7058,-0.7053,-0.7044,-0.7035,-0.7036,-0.7025,-0.702,-0.702,-0.7008,-0.7007,-0.7002,-0.6998,-0.6994,-0.701,-0.7001,-0.7009,-0.7022,-0.7024,-0.7027,-0.7028,-0.7034,-0.7036,-0.701,-0.701,-0.701,0,-0.7076,-0.7073,-0.7061,-0.7061,-0.7057,-0.7042,-0.7045,-0.704,-0.7031,-0.7029,-0.7023,-0.7017,-0.7011,-0.7013,-0.7017,-0.7015,-0.7016,-0.7011,-0.7027,-0.7029,-0.7031,-0.7036,-0.7038,-0.7011,-0.7011,-0.7011,-0.7011,0,-0.709,-0.7089,-0.7092,-0.7083,-0.708,-0.7081,-0.7069,-0.7068,-0.706,-0.7052,-0.7053,-0.7045,-0.704,-0.704,-0.7032,-0.7041,-0.7038,-0.703,-0.7019,-0.7034,-0.7039,-0.7041,-0.7013,-0.7013,-0.7012,-0.7012,0,0,-0.712,-0.7104,-0.7105,-0.7101,-0.709,-0.7088,-0.7089,-0.7084,-0.7083,-0.7077,-0.7078,-0.7075,-0.7067,-0.7064,-0.7056,-0.7058,-0.7071,-0.705,-0.7049,-0.7054,-0.708,-0.7087,-0.7089,-0.7065,-0.7065,-0.7066,-0.7081,0,-0.7135,-0.7135,-0.7124,-0.7127,-0.7125,-0.7111,-0.7112,-0.7106,-0.7099,-0.7097,-0.7089,-0.7087,-0.7077,-0.7075,-0.7077,-0.7069,-0.7076,-0.7068,-0.7066,-0.7066,-0.7068,-0.7092,-0.7098,-0.7113,-0.7083,-0.7083,-0.7083,0,-0.7153,-0.7148,-0.7151,-0.714,-0.7139,-0.714,-0.7134,-0.7132,-0.7125,-0.712,-0.7116,-0.7106,-0.7107,-0.7097,-0.7097,-0.7092,-0.7091,-0.7087,-0.7087,-0.7087,-0.7076,-0.7092,-0.7117,-0.712,-0.7086,-0.7086,-0.7086,0,-0.7174,-0.7168,-0.7169,-0.7166,-0.7153,-0.7154,-0.7149,-0.7141,-0.7139,-0.7134,-0.7132,-0.7128,-0.7126,-0.7123,-0.7113,-0.7106,-0.7115,-0.7104,-0.7111,-0.7111,-0.7113,-0.7113,-0.7139,-0.7112,-0.7112,-0.7112,-0.7112,0,-0.7193,-0.7195,-0.7179,-0.7179,-0.7182,-0.7169,-0.7172,-0.7165,-0.7159,-0.7158,-0.7146,-0.7146,-0.7132,-0.7131,-0.7123,-0.7125,-0.7124,-0.712,-0.7118,-0.7121,-0.7122,-0.712,-0.7119,-0.7112,-0.7112,-0.7112,-0.7112,0,-0.7217,-0.7206,-0.7206,-0.7194,-0.7191,-0.7194,-0.7183,-0.7184,-0.7176,-0.7176,-0.7175,-0.7163,-0.716,-0.715,-0.7145,-0.714,-0.7145,-0.714,-0.7147,-0.7146,-0.7153,-0.7153,-0.7179,-0.7182,-0.7153,-0.7153,-0.7154,0,-0.723,-0.7231,-0.7219,-0.7218,-0.7213,-0.7211,-0.7208,-0.7196,-0.7194,-0.7186,-0.7187,-0.7184,-0.718,-0.7177,-0.7168,-0.7165,-0.7161,-0.717,-0.716,-0.7163,-0.7161,-0.7161,-0.7161,-0.7172,-0.7173,-0.7173,-0.7173,0,-0.7254,-0.7248,-0.7245,-0.7239,-0.7236,-0.7232,-0.7226,-0.7226,-0.7212,-0.7211,-0.7208,-0.7205,-0.72,-0.7197,-0.7192,-0.7187,-0.7178,-0.7176,-0.7178,-0.7181,-0.7185,-0.7184,-0.7153,-0.7176,-0.7176,-0.7175,-0.7175,-0.7175,-0.7273,-0.7273,-0.7265,-0.7262,-0.7256,-0.7251,-0.7251,-0.7243,-0.7241,-0.7235,-0.7228,-0.7226,-0.7219,-0.7211,-0.7207,-0.7206,-0.7201,-0.7203,-0.7204,-0.7204,-0.7206,-0.7185,-0.7205,-0.7205,-0.7205,-0.7205,-0.7205,0,-0.7296,-0.729,-0.7287,-0.728,-0.7277,-0.7268,-0.7262,-0.726,-0.7259,-0.7253,-0.725,-0.7247,-0.7244,-0.7234,-0.7231,-0.7231,-0.7227,-0.7231,-0.7231,-0.723,-0.7211,-0.721,-0.7234,-0.7234,-0.7234,-0.7234,-0.7234,-0.7234,-0.7308,-0.7309,-0.7302,-0.73,-0.7294,-0.7292,-0.7289,-0.7285,-0.728,-0.7277,-0.7274,-0.7268,-0.7261,-0.7257,-0.7254,-0.7251,-0.725,-0.7256,-0.7252,-0.7234,-0.7231,-0.7229,-0.7228,-0.7255,-0.7255,-0.7271,-0.7271,-0.7271]},{"header":{"parameterUnit":"m.s-1","parameterCategory":1,"la1":30.2991,"la2":30.254,"lo1":-89.0895,"lo2":-89.0444,"dy":0.0017,"dx":0.0017,"nx":28,"ny":28,"refTime":"2024-05-04T03:00:00:Z","depth":0,"parameterNumber":3,"parameterNumberName":"V-component_of_WINDS"},"data":[0,0,0,0,0,0,0,0,0,0,0,0,0,0,0,0,0,0,0,0,0,0,0,0,0,0,0,0,0,0,0,0,0,0,0,0,0,0,0,0,0,0,0,0,0,0,0,0,0,0,0,0,0,0,0,0,0,0,1.7214,1.7214,0,1.7191,1.7191,1.7191,1.716,1.7159,1.7159,1.7158,1.7134,1.7134,1.7134,0,0,0,0,0,0,0,0,0,0,0,0,0,1.723,1.723,1.7214,1.7214,1.7213,1.7191,1.7191,1.7191,1.716,1.7159,1.7159,1.7158,1.7134,1.7134,1.7134,0,0,0,0,0,0,0,0,0,0,0,0,0,1.7217,1.723,1.7214,1.7195,1.7194,1.7191,1.7191,1.719,1.716,1.7159,1.7158,1.7158,1.7134,1.7134,1.7134,1.7147,0,0,1.7133,1.7133,0,0,0,0,0,0,0,0,1.7218,1.7216,1.7198,1.7197,1.7195,1.7178,1.7188,1.7176,1.716,1.7173,1.7158,1.7157,1.7149,1.7148,1.7145,1.7146,1.7145,1.7133,1.7133,1.7133,1.7133,0,0,0,0,0,0,0,1.7219,1.7217,1.7205,1.7198,1.7196,1.7188,1.7185,1.7185,1.7165,1.7172,1.7169,1.7167,1.7148,1.7145,1.7144,1.7145,1.7133,1.7133,1.7132,1.7132,1.7156,1.7157,0,0,0,0,0,0,1.7222,1.7218,1.7206,1.7204,1.7205,1.7188,1.7185,1.7184,1.7165,1.7162,1.7168,1.7166,1.7146,1.7144,1.7143,1.7158,1.7133,1.7132,1.7132,1.7155,1.7156,1.7157,0,0,0,0,0,0,1.7223,1.7222,1.7207,1.7211,1.7208,1.7189,1.7187,1.7184,1.7181,1.7162,1.7159,1.7169,1.7145,1.7143,1.7147,1.7156,1.7132,1.7132,1.7154,1.7156,1.7157,1.7187,0,0,0,0,0,0,1.7224,1.7222,1.7227,1.7211,1.7208,1.7211,1.7188,1.7184,1.7181,1.7178,1.7162,1.7159,1.7145,1.7147,1.7146,1.7156,1.7132,1.7153,1.7155,1.7156,1.7185,1.7189,1.7193,0,0,0,0,0,1.7224,1.7237,1.7228,1.7226,1.7214,1.7211,1.721,1.7193,1.7182,1.7187,1.7175,1.716,1.7156,1.7148,1.7147,1.7156,1.7153,1.7154,1.7156,1.7184,1.7189,1.7193,0,0,0,0,0,0,1.7255,1.7234,1.7224,1.7232,1.7224,1.7206,1.7212,1.7199,1.7193,1.7191,1.717,1.7167,1.7173,1.7165,1.7156,1.7168,1.7152,1.7153,1.7173,1.7178,1.7181,1.7183,1.7132,0,0,0,0,0,1.7262,1.7262,1.7244,1.7252,1.7249,1.7231,1.7229,1.7217,1.7208,1.7204,1.7192,1.7184,1.718,1.7179,1.7175,1.7184,1.718,1.719,1.7194,1.7197,1.7198,1.7202,1.7206,1.7163,1.7163,1.7163,0,0,1.7278,1.7267,1.7268,1.7258,1.7251,1.725,1.7229,1.7229,1.7229,1.7204,1.7206,1.7198,1.7186,1.7193,1.7195,1.7186,1.721,1.7199,1.7202,1.7202,1.7205,1.7209,1.7212,1.7164,1.7164,1.7164,0,0,1.7306,1.7298,1.7304,1.7297,1.7285,1.7273,1.7275,1.726,1.7253,1.7255,1.7236,1.7235,1.723,1.7223,1.7218,1.7244,1.7229,1.7243,1.7263,1.7267,1.727,1.7273,1.7282,1.7285,1.7245,1.7245,1.7245,0,1.7327,1.7326,1.7308,1.731,1.7307,1.7285,1.729,1.7284,1.7272,1.727,1.726,1.7253,1.7244,1.7248,1.7254,1.7252,1.7252,1.7244,1.7271,1.7274,1.7276,1.7284,1.7288,1.7246,1.7246,1.7246,1.7246,0,1.7352,1.7352,1.7358,1.7347,1.7344,1.7348,1.733,1.7329,1.7318,1.7307,1.7309,1.7297,1.729,1.729,1.7279,1.7292,1.7287,1.7275,1.7258,1.7282,1.7289,1.7292,1.7249,1.7248,1.7248,1.7247,0,0,1.7398,1.7378,1.738,1.7375,1.7361,1.736,1.7363,1.7356,1.7355,1.7348,1.7349,1.7346,1.7334,1.7329,1.7316,1.732,1.734,1.7307,1.7306,1.7313,1.7354,1.7363,1.7367,1.7331,1.7331,1.7332,1.7355,0,1.7423,1.7427,1.7411,1.7419,1.7418,1.7397,1.74,1.7391,1.7381,1.7379,1.7367,1.7365,1.735,1.7347,1.7349,1.7337,1.7348,1.7335,1.7331,1.7331,1.7334,1.7371,1.7381,1.7403,1.7358,1.7358,1.7358,0,1.7453,1.7448,1.7455,1.744,1.744,1.7442,1.7435,1.7433,1.7423,1.7415,1.7409,1.7395,1.7396,1.738,1.7381,1.7373,1.737,1.7364,1.7365,1.7363,1.7346,1.737,1.741,1.7413,1.7363,1.7362,1.7362,0,1.7486,1.748,1.7484,1.748,1.7463,1.7465,1.7458,1.7447,1.7444,1.7437,1.7435,1.7429,1.7425,1.742,1.7404,1.7395,1.7407,1.739,1.74,1.7401,1.7403,1.7403,1.7443,1.7403,1.7403,1.7403,1.7403,0,1.7515,1.7521,1.7498,1.75,1.7506,1.7487,1.7493,1.7484,1.7474,1.7474,1.7456,1.7456,1.7435,1.7433,1.742,1.7422,1.7421,1.7414,1.7411,1.7416,1.7417,1.7414,1.7411,1.7403,1.7403,1.7403,1.7403,0,1.7552,1.7538,1.754,1.7524,1.752,1.7525,1.7511,1.7512,1.7501,1.75,1.7499,1.7482,1.7478,1.7462,1.7454,1.7445,1.7452,1.7445,1.7455,1.7453,1.7464,1.7463,1.7503,1.7507,1.7464,1.7465,1.7465,0,1.7572,1.7576,1.756,1.7559,1.7553,1.7551,1.7548,1.753,1.7527,1.7516,1.7518,1.7513,1.7508,1.7503,1.7489,1.7483,1.7476,1.749,1.7475,1.7479,1.7475,1.7475,1.7475,1.7493,1.7494,1.7494,1.7495,0,1.7608,1.7601,1.7597,1.7591,1.7588,1.7582,1.7575,1.7575,1.7555,1.7553,1.7549,1.7545,1.7538,1.7533,1.7524,1.7516,1.7502,1.75,1.7502,1.7506,1.7512,1.7509,1.7464,1.7499,1.7498,1.7498,1.7498,1.7498,1.7637,1.7639,1.7628,1.7625,1.7618,1.7612,1.7612,1.7601,1.7598,1.759,1.758,1.7577,1.7566,1.7553,1.7547,1.7544,1.7536,1.7539,1.754,1.7541,1.7543,1.7513,1.7543,1.7542,1.7542,1.7542,1.7542,0,1.7672,1.7664,1.7661,1.7652,1.7649,1.7637,1.7628,1.7626,1.7625,1.7616,1.7611,1.7607,1.7602,1.7587,1.7581,1.7581,1.7575,1.758,1.758,1.7578,1.7551,1.7549,1.7586,1.7586,1.7586,1.7586,1.7586,1.7586,1.769,1.7693,1.7684,1.7683,1.7675,1.7672,1.7669,1.7663,1.7656,1.7651,1.7647,1.7638,1.7627,1.7619,1.7614,1.761,1.7608,1.7616,1.7609,1.7584,1.758,1.7576,1.7575,1.7616,1.7616,1.7637,1.7637,1.7637]}]]